Regional Weather Roundup
Issued by NWS

Home | Current Version | Previous Version | Text Only | Print | Product List | Glossary On
Versions: 1 2 3 4 5 6 7 8 9 10 11 12 13 14 15 16 17 18 19 20 21 22 23 24 25 26 27 28 29 30 31 32 33 34 35 36 37 38 39 40 41 42 43 44 45 46 47 48 49 50
000
ASUS43 KDTX 280510
RWRMI
MICHIGAN HOURLY REGIONAL WEATHER ROUNDUP
NATIONAL WEATHER SERVICE DETROIT/PONTIAC MI
100 AM EDT FRI AUG 28 2015

NOTE: "FAIR" INDICATES FEW OR NO CLOUDS BELOW 12,000 FEET WITH NO
SIGNIFICANT WEATHER AND/OR OBSTRUCTION TO VISIBILITY.

MIZ047>049-052>055-059>063-066>070-074>076-081>083-280600-
SOUTHEAST LOWER MICHIGAN

CITY           SKY/WX    TMP DP  RH WIND       PRES   REMARKS
ADRIAN         CLEAR     51  49  92 CALM      30.19S
ALMA           CLEAR     52  51  97 CALM      30.17S
ANN ARBOR      CLEAR     48  47  96 CALM      30.18S FOG
BAD AXE        CLEAR     49  48  97 CALM      30.17F
DETROIT CITY   CLEAR     56  52  86 CALM      30.18F
DETROIT          N/A     59  53  80 E3        30.18F
FLINT          CLEAR     50  47  89 CALM      30.18S FOG
GROSSE ILE     CLEAR     61  54  77 E5        30.17F
HILLSDALE      CLEAR     55  55 100 E3        30.18S
HOWELL         CLEAR     53  52  97 CALM      30.18S

CITY           SKY/WX    TMP DP  RH WIND       PRES   REMARKS
JACKSON        CLEAR     53  50  89 CALM      30.17F
LAMBERTVILLE     N/A     54  51  92 CALM      30.18S FOG
LANSING        CLEAR     53  51  93 CALM      30.18S
LAPEER         NOT AVBL
MASON          FOG       48  47  98 CALM      30.17F VSB 1/4
MONROE         CLEAR     54  52  94 CALM      30.17S
MT. CLEMENS    CLEAR     53  52  96 CALM      30.16S FOG
PONTIAC        CLEAR     51  50  96 CALM      30.18S
PORT HOPE        N/A     56  53  90 VRB3      30.15F
PORT HURON     PTCLDY    50  50 100 CALM      30.18F
TRI CITIES     CLEAR     58  53  84 S6        30.17F
YPSILANTI      CLEAR     55  50  83 CALM      30.18F
$$
MIZ043>046-050>051-056>058-064>065-071>073-077>080-280600-
SOUTHWEST LOWER MICHIGAN

CITY           SKY/WX    TMP DP  RH WIND       PRES   REMARKS
BATTLE CREEK   PTCLDY    55  52  89 CALM      30.17S
BENTON HARBOR  PTCLDY    55  53  93 CALM      30.15S FOG
BIG RAPIDS       N/A     55  54  96 CALM      30.15S FOG
COLDWATER      CLEAR     56  54  95 SE5       30.17S
HOLLAND        PTCLDY    56  54  93 E3        30.16F
GRAND RAPIDS   PTCLDY    57  55  93 CALM      30.17S
KALAMAZOO      PTCLDY    56  52  86 SE5       30.17S
MARSHALL       MOCLDY    53  52  96 CALM      30.16F
MUSKEGON       PTCLDY    56  53  90 SE5       30.15F
$$
MIZ016>042-280600-
NORTHERN LOWER MICHIGAN

CITY           SKY/WX    TMP DP  RH WIND       PRES   REMARKS
ALPENA         PTCLDY    50  48  93 CALM      30.14F FOG
BEAVER ISLAND  CLEAR     61  59  91 SW5       30.10F
BELLAIRE       FOG       52  50  95 CALM      30.14R VSB 1/2
CADILLAC       FOG       51  49  93 CALM      30.15S VSB 3/4
CHARLEVOIX     CLEAR     59  58  96 S3        30.15S
FRANKFORT      CLEAR     56  55  97 CALM      30.12F
GAYLORD        MOCLDY    57  56  96 CALM      30.14F
GRAYLING       MOCLDY    55  55  98 CALM      30.15S FOG
HARBOR SPRINGS CLEAR     55  54  95 CALM      30.12S
HOUGHTON LAKE  MOCLDY    62  58  86 W5        30.15F
MANISTEE       PTCLDY    54  50  87 E5        30.14S
OSCODA         CLEAR     50  48  93 CALM      30.15S
PELLSTON       PTCLDY    48  47  96 CALM      30.12F
TRAVERSE CITY  CLEAR     58  54  86 CALM      30.13R
$$
MIZ007>008-015-280600-
EASTERN UPPER MICHIGAN

CITY           SKY/WX    TMP DP  RH WIND       PRES   REMARKS
KINROSS        CLEAR     54  54 100 SE5       30.11S
MACKINAC ISLAN PTCLDY    58  57  94 S6        30.11S
NEWBERRY       CLEAR     56  56 100 S7        30.08F
S. S. MARIE    MOCLDY    53  50  89 CALM      30.11S
$$
MIZ004>006-011>014-085-280600-
CENTRAL UPPER MICHIGAN

CITY           SKY/WX    TMP DP  RH WIND       PRES   REMARKS
MANISTIQUE     CLEAR     61  58  91 SW7       30.08S
ESCANABA       CLEAR     61  57  88 S6        30.06F
MENOMINEE      PTCLDY    61  54  77 SW5       30.06F
SAWYER-GWINN   CLEAR     57  55  93 S7        30.06F
$$
MIZ001>003-009>011-084-280600-
WESTERN UPPER MICHIGAN

CITY           SKY/WX    TMP DP  RH WIND       PRES   REMARKS
IRON MOUNTAIN  PTCLDY    58  55  90 SE3       30.05F
HOUGHTON       PTCLDY    50  48  93 CALM      30.01F
COPPER HARBOR    N/A     59  51  75 SW8       29.99F
IRONWOOD       PTCLDY    64  57  77 SW5       29.99F
$$

ABBREVIATIONS USED IN REMARKS
   TC - TEMPERATURE IN CELSIUS
  WCI - WIND CHILL INDEX
   HX - HEAT INDEX
  VSB - VISIBILITY




USA.gov is the U.S. government's official web portal to all federal, state and local government web resources and services.